• In Netherlands
  • List of Countries
  • For 7 days
  • Water Temperature
  • Satellite Maps
  • Weather Map
  • Weather Widgets
  • user-avatar
    Login

    Hourly Weather Naftalan

    Today, 23 June, Friday

    Time Temperature Precipitation Wind Pressure Humidity
    00:00 +21°C° 0 mm 2 mps 761 mmHg 69%
    01:00 +21°C° 0 mm 2 mps 761 mmHg 71%
    02:00 +20°C° 0 mm 2 mps 761 mmHg 72%
    03:00 +20°C° 0 mm 2 mps 761 mmHg 74%
    04:00 +21°C° 0 mm 2 mps 762 mmHg 70%
    05:00 +23°C° 0 mm 2 mps 762 mmHg 66%
    06:00 +24°C° 0 mm 2 mps 762 mmHg 63%
    07:00 +26°C° 0 mm 2 mps 763 mmHg 56%
    08:00 +28°C° 0 mm 2 mps 763 mmHg 50%
    09:00 +29°C° 0 mm 1 mps 763 mmHg 43%
    10:00 +30°C° 0 mm 2 mps 763 mmHg 40%
    11:00 +31°C° 0 mm 2 mps 763 mmHg 38%
    12:00 +33°C° 0 mm 3 mps 762 mmHg 35%
    13:00 +33°C° 0 mm 4 mps 762 mmHg 35%
    14:00 +33°C° 0 mm 4 mps 762 mmHg 36%
    15:00 +33°C° 0 mm 5 mps 762 mmHg 37%
    16:00 +32°C° 0 mm 4 mps 762 mmHg 40%
    17:00 +30°C° 0 mm 4 mps 762 mmHg 43%
    18:00 +29°C° 0 mm 4 mps 762 mmHg 46%
    19:00 +27°C° 0 mm 4 mps 762 mmHg 52%
    20:00 +26°C° 0 mm 3 mps 762 mmHg 58%
    21:00 +24°C° 0 mm 3 mps 763 mmHg 64%
    22:00 +24°C° 0 mm 3 mps 763 mmHg 66%
    23:00 +23°C° 0 mm 2 mps 763 mmHg 69%

    Tomorrow, 24 June, Saturday

    Time Temperature Precipitation Wind Pressure Humidity
    00:00 +23°C° 0 mm 2 mps 762 mmHg 72%
    01:00 +21°C° 0 mm 2 mps 762 mmHg 74%
    02:00 +21°C° 0 mm 2 mps 762 mmHg 76%
    03:00 +22°C° 0 mm 1 mps 762 mmHg 78%
    04:00 +23°C° 0 mm 1 mps 763 mmHg 75%
    05:00 +24°C° 0 mm 1 mps 763 mmHg 72%
    06:00 +25°C° 0 mm 1 mps 763 mmHg 68%
    07:00 +26°C° 0 mm 1 mps 763 mmHg 61%
    08:00 +28°C° 0 mm 1 mps 763 mmHg 53%
    09:00 +29°C° 0 mm 1 mps 763 mmHg 46%
    10:00 +30°C° 0 mm 2 mps 762 mmHg 42%
    11:00 +33°C° 0 mm 3 mps 762 mmHg 39%
    12:00 +34°C° 0 mm 4 mps 762 mmHg 36%
    13:00 +34°C° 0 mm 4 mps 761 mmHg 36%
    14:00 +34°C° 0 mm 5 mps 760 mmHg 37%
    15:00 +34°C° 0 mm 5 mps 760 mmHg 37%
    16:00 +32°C° 0 mm 5 mps 760 mmHg 42%
    17:00 +30°C° 0 mm 5 mps 760 mmHg 46%
    18:00 +29°C° 0 mm 5 mps 760 mmHg 51%
    19:00 +27°C° 0 mm 5 mps 760 mmHg 57%
    20:00 +26°C° 0 mm 5 mps 760 mmHg 64%
    21:00 +23°C° 0 mm 5 mps 760 mmHg 70%
    22:00 +23°C° 0 mm 4 mps 760 mmHg 72%
    23:00 +23°C° 0 mm 4 mps 760 mmHg 75%

    Day after tomorrow, 25 June, Sunday

    Time Temperature Precipitation Wind Pressure Humidity
    00:00 +22°C° 0 mm 4 mps 760 mmHg 78%
    01:00 +22°C° 0 mm 3 mps 760 mmHg 79%
    02:00 +22°C° 0 mm 3 mps 760 mmHg 81%
    03:00 +21°C° 0 mm 2 mps 760 mmHg 83%
    04:00 +24°C° 0 mm 2 mps 760 mmHg 77%
    05:00 +25°C° 0 mm 2 mps 760 mmHg 71%
    06:00 +26°C° 0 mm 2 mps 760 mmHg 65%
    07:00 +28°C° 0 mm 2 mps 760 mmHg 56%
    08:00 +30°C° 0 mm 2 mps 760 mmHg 48%
    09:00 +32°C° 0 mm 2 mps 761 mmHg 39%
    10:00 +34°C° 0 mm 2 mps 761 mmHg 34%
    11:00 +36°C° 0 mm 3 mps 760 mmHg 30%
    12:00 +37°C° 0 mm 3 mps 760 mmHg 25%
    13:00 +37°C° 0 mm 4 mps 760 mmHg 28%
    14:00 +36°C° 0 mm 5 mps 760 mmHg 31%
    15:00 +36°C° 0 mm 5 mps 760 mmHg 34%
    16:00 +34°C° 0 mm 5 mps 760 mmHg 38%
    17:00 +33°C° 0 mm 5 mps 761 mmHg 42%
    18:00 +30°C° 0 mm 5 mps 761 mmHg 46%
    19:00 +29°C° 0 mm 5 mps 761 mmHg 51%
    20:00 +28°C° 0 mm 4 mps 762 mmHg 56%
    21:00 +26°C° 0 mm 4 mps 763 mmHg 61%
    22:00 +25°C° 0 mm 4 mps 763 mmHg 63%
    23:00 +25°C° 0 mm 4 mps 763 mmHg 64%

    26 June, Monday

    Time Temperature Precipitation Wind Pressure Humidity
    00:00 +23°C° 0 mm 4 mps 763 mmHg 65%
    01:00 +23°C° 0 mm 4 mps 763 mmHg 67%
    02:00 +22°C° 0 mm 4 mps 763 mmHg 69%
    03:00 +22°C° 0 mm 3 mps 763 mmHg 71%
    04:00 +24°C° 0 mm 3 mps 763 mmHg 68%
    05:00 +25°C° 0 mm 3 mps 764 mmHg 65%
    06:00 +26°C° 0 mm 2 mps 764 mmHg 62%
    07:00 +28°C° 0 mm 3 mps 764 mmHg 54%
    08:00 +29°C° 0 mm 3 mps 764 mmHg 47%
    09:00 +31°C° 0 mm 3 mps 764 mmHg 39%
    10:00 +33°C° 0 mm 3 mps 764 mmHg 36%
    11:00 +34°C° 0 mm 4 mps 764 mmHg 34%
    12:00 +35°C° 0 mm 4 mps 763 mmHg 31%
    13:00 +35°C° 0 mm 4 mps 763 mmHg 32%
    14:00 +35°C° 0 mm 4 mps 763 mmHg 32%
    15:00 +35°C° 0 mm 5 mps 762 mmHg 33%
    16:00 +34°C° 0 mm 4 mps 762 mmHg 36%
    17:00 +33°C° 0 mm 4 mps 762 mmHg 40%
    18:00 +31°C° 0 mm 3 mps 762 mmHg 43%
    19:00 +29°C° 0 mm 3 mps 762 mmHg 50%
    20:00 +28°C° 0 mm 2 mps 763 mmHg 57%
    21:00 +26°C° 0 mm 2 mps 763 mmHg 64%
    22:00 +25°C° 0 mm 2 mps 763 mmHg 66%
    23:00 +25°C° 0 mm 1 mps 763 mmHg 69%

    27 June, Tuesday

    Time Temperature Precipitation Wind Pressure Humidity
    00:00 +24°C° 0 mm 1 mps 762 mmHg 71%
    01:00 +24°C° 0 mm 1 mps 762 mmHg 73%
    02:00 +23°C° 0 mm 1 mps 762 mmHg 75%
    03:00 +23°C° 0 mm 1 mps 762 mmHg 77%
    04:00 +24°C° 0 mm 1 mps 762 mmHg 72%
    05:00 +25°C° 0 mm 1 mps 762 mmHg 67%
    06:00 +27°C° 0 mm 1 mps 762 mmHg 62%
    07:00 +28°C° 0 mm 1 mps 762 mmHg 54%
    08:00 +30°C° 0 mm 1 mps 762 mmHg 46%
    09:00 +32°C° 0 mm 1 mps 762 mmHg 38%
    10:00 +34°C° 0 mm 1 mps 762 mmHg 34%
    11:00 +36°C° 0 mm 2 mps 762 mmHg 31%
    12:00 +37°C° 0 mm 2 mps 761 mmHg 27%
    13:00 +38°C° 0 mm 3 mps 761 mmHg 27%
    14:00 +38°C° 0 mm 4 mps 761 mmHg 27%
    15:00 +38°C° 0 mm 4 mps 761 mmHg 27%
    16:00 +37°C° 0 mm 4 mps 761 mmHg 29%
    17:00 +35°C° 0 mm 4 mps 761 mmHg 32%
    18:00 +34°C° 0 mm 4 mps 761 mmHg 35%
    19:00 +32°C° 0 mm 4 mps 762 mmHg 42%
    20:00 +29°C° 0 mm 3 mps 762 mmHg 48%
    21:00 +27°C° 0 mm 2 mps 763 mmHg 55%
    22:00 +26°C° 0 mm 2 mps 762 mmHg 57%
    23:00 +26°C° 0 mm 2 mps 762 mmHg 59%

    28 June, Wednesday

    Time Temperature Precipitation Wind Pressure Humidity
    00:00 +25°C° 0 mm 1 mps 762 mmHg 61%
    01:00 +25°C° 0 mm 1 mps 762 mmHg 61%
    02:00 +24°C° 0 mm 1 mps 762 mmHg 61%
    03:00 +24°C° 0 mm 1 mps 762 mmHg 62%
    04:00 +25°C° 0 mm 1 mps 762 mmHg 57%
    05:00 +27°C° 0 mm 1 mps 762 mmHg 52%
    06:00 +28°C° 0 mm 1 mps 763 mmHg 47%
    07:00 +30°C° 0 mm 2 mps 762 mmHg 41%
    08:00 +32°C° 0 mm 2 mps 762 mmHg 34%
    09:00 +34°C° 0 mm 2 mps 762 mmHg 28%
    10:00 +36°C° 0 mm 2 mps 762 mmHg 26%
    11:00 +37°C° 0 mm 3 mps 762 mmHg 24%
    12:00 +38°C° 0 mm 3 mps 761 mmHg 22%
    13:00 +38°C° 0 mm 4 mps 761 mmHg 23%
    14:00 +38°C° 0 mm 4 mps 761 mmHg 23%
    15:00 +39°C° 0 mm 5 mps 760 mmHg 23%
    16:00 +36°C° 0 mm 4 mps 760 mmHg 27%
    17:00 +35°C° 0 mm 4 mps 760 mmHg 30%
    18:00 +33°C° 0 mm 3 mps 760 mmHg 34%
    19:00 +30°C° 0 mm 3 mps 760 mmHg 40%
    20:00 +29°C° 0 mm 2 mps 760 mmHg 46%
    21:00 +27°C° 0 mm 1 mps 760 mmHg 53%
    22:00 +26°C° 0 mm 2 mps 760 mmHg 55%
    23:00 +26°C° 0 mm 2 mps 760 mmHg 57%
    Show more